SL-8 DEB, 1634

Orbit data source: Space-Track

SL-8 DEB, 1634 is space debris in LEO originally from a launch on Mon, 15 Mar 1965 UTC launched from the Tyuratam Missile And Space Complex (TTMTR). Debris objects in space refer to the collection of defunct objects orbiting the Earth. Examples of debris include non-operational satellites, rocket bodies, and fragments generated from explosions, collisions, or faulty payload assembly.

Loading next visibility...
Identifier
1634, 1965-020ED
Orbit
LEO
Country
Flag of CISCIS
Related business
Manufacturer
Unknown
Mission
Spacecraft
Bus & Motor
Unknown
Mass
Unknown
Launch date (UTC)
1965-03-15 (61 years ago)
Launch vehicle
Unknown
Launch site
Tyuratam Missile And Space Complex (TTMTR)
Object type
Payload
Rocket body
Debris
Shape & HBR
Unknown shape, 0.1 m
Radar Cross Section
Small (<0.1 m²)

Expand to show TLE details & history
Last TLE update: 9 hours ago

TLE from 9 hours ago
0 SL-8 DEB
1 01634U 65020ED  25293.31305862 -.00000160  00000-0 -10257-3 0  9993
2 01634  56.1561 356.9473 0855401 117.2683 251.7960 12.48481090732524
Epoch: 2025-10-20T07:30Z
TLE epoch observation values (Epoch: 2025-10-20T07:30:48.264Z)
Latitude
Longitude
-144.77096°
Altitude
1,731.32 km
Speed
6.896 km/s
True Right ascension
23h 47m 47s
True Declination
0° 00' 00"
Sunlit
Object was in full shadow at epoch
Visualization orbit readout
Latitude
Unknown
Longitude
Unknown
Altitude
Unknown
Speed
Unknown
Apparent Right ascension
Unknown
Apparent Declination
Unknown
Sunlit
N/A
Visualization observer readout
Local Sidereal Time
11:15:33
Azimuth
Unknown
Elevation
Unknown
Doppler factor
Unknown
Orbital elements
Apogee altitude
2,142.049 km
Perigee altitude
799.275 km
Semi-major axis
7,848.799 km
Eccentricity
0.08554
Inclination
56.1561°
RAAN
356.9473°
Arg. of periapsis
117.2683°
True anomaly
242.82244°
Mean anomaly
251.796°
Eccentric anomaly
247.27537°
Mean motion
3.12132 °/min
Orbital period
115.34 mins
BSTAR
-0.00010257
Loading maneuver chart data...
Computing Atmospheric mass density...

Documentation

Showing up to 5 results
|